Regional Weather Roundup
Issued by NWS

Home | Current Version | Previous Version | Graphics & Text | Print | Product List | Glossary On
Versions: 1 2 3 4 5 6 7 8 9 10 11 12 13 14 15 16 17 18 19 20 21 22 23 24 25 26 27 28 29 30 31 32 33 34 35 36 37 38 39 40 41 42 43 44 45 46 47 48 49 50
000
ASUS44 KMEG 251110
RWRTN
TENNESSEE HOURLY STATE WEATHER ROUNDUP
NATIONAL WEATHER SERVICE MEMPHIS TN
600 AM CDT SUN SEP 25 2016

TNZ002-004-019-021-049-052-054-088>092-251200-
WEST TENNESSEE

CITY           SKY/WX    TMP DP  RH WIND       PRES   REMARKS
MEMPHIS INTL   CLEAR     75  66  73 CALM      30.04R
NWS MEMPHIS      N/A     70 N/A N/A MISG        N/A
JACKSON          N/A    N/A N/A N/A MISG      30.06R
DYERSBURG      CLEAR    N/A N/A N/A MISG        N/A
UNION CITY     CLEAR     64  64 100 CALM      30.05S
PARIS          CLEAR     64  64 100 CALM      30.08R
HUNTINGDON       N/A     66  66 100 CALM      30.06S FOG
$$

TNZ008-025-027-028-033-062-065-066-251200-
NORTH MIDDLE TENNESSEE

CITY           SKY/WX    TMP DP  RH WIND       PRES   REMARKS
NASHVILLE      CLEAR     66  63  90 S3        30.09R
PORTLAND       CLEAR     64  63  94 CALM      30.09S
CLARKSVILLE    LGT RAIN  63  62  97 CALM      30.09R FOG
SMYRNA         CLEAR     65  64  97 CALM      30.10R
COOKEVILLE     CLEAR     61  61 100 CALM      30.10R
GALLATIN       CLEAR     64  63  94 CALM      30.11S FOG
CROSSVILLE     CLEAR     61  59  93 CALM      30.16R
$$

TNZ061-075-076-078-094-096-097-251200-
SOUTH MIDDLE TENNESSEE

CITY           SKY/WX    TMP DP  RH WIND       PRES   REMARKS
FAYETTEVILLE   CLOUDY    68  64  88 NE6       30.09R
TULLAHOMA      CLEAR     63  61  94 CALM      30.11S
WINCHESTER     CLEAR     63  61  94 CALM      30.10R
MCMINNVILLE    CLEAR     63  63 100 CALM      30.11R
COLUMBIA       CLEAR    N/A N/A N/A CALM      30.08S
$$

TNZ017-018-042-046-047-251200-
NORTHEAST TENNESSEE

CITY           SKY/WX    TMP DP  RH WIND       PRES   REMARKS
TRI CITIES     CLEAR     60  59  96 CALM      30.14R
ELIZABETHTON   CLEAR     63  61  94 NE5       30.14S
$$

TNZ012-013-036-069-073-074-251200-
CENTRAL EAST TENNESSEE

CITY           SKY/WX    TMP DP  RH WIND       PRES   REMARKS
KNOXVILLE      CLEAR     67  63  87 N3        30.10R
OAK RIDGE      CLEAR     67  64  90 CALM      30.12
DOWNTOWN KNOXV CLEAR     66  66 100 CALM      30.10S
GATLINBURG     CLEAR     61  61 100 CALM      30.11R
MORRISTOWN     CLEAR     66  64  94 CALM      30.12R
JACKSBORO      CLEAR     61  61 100 CALM      30.16R
$$

TNZ083-085-099-251200-
SOUTHEAST TENNESSEE

CITY           SKY/WX    TMP DP  RH WIND       PRES   REMARKS
CHATTANOOGA    CLEAR     68  63  84 CALM      30.10R
$$

SKY/WX REPORTED AS FAIR MEANS FEW OR NO CLOUDS BELOW
12 THOUSAND FEET.





USA.gov is the U.S. government's official web portal to all federal, state and local government web resources and services.